STARLINK-11334, 61250

Orbit data source: Space-Track

STARLINK-11334, 61250 is a payload satellite owned by SpaceX/Seattle (US) in LEO that was launched on Wed, 25 Sep 2024 UTC via an FALCON 9 launch vehicle from the Air Force Western Test Range (AFWTR). Payload-class satellites include a variety of spacecraft equipped with specific instruments for various scientific and technological missions. These include communications satellites like Starlink; space stations such as the ISS; scientific satellites like the Hubble; Earth observation satellites from companies like Planet Labs, Umbra, and HawkEye 360; GPS; miniature CubeSats for education and research; and military/defense satellites.

Loading next visibility...
Identifier
61250, 2024-175H
Orbit
LEO
Last TLE update
11 hours ago
Origin
Manufacturer
SpaceX/Seattle
Mission
Operational Commercial Communications
Bus & Motor
STARLINK V2M, Unknown motor
Mass
730 kg wet, ~700 kg dry
Launch date (UTC)
2024-09-25 (9 months ago)
Launch vehicle
FALCON 9
Launch site
Air Force Western Test Range (AFWTR)
Object type
Payload
Rocket body
Debris
Shape & HBR
Box + 2 Pan, 29 m
Radar Cross Section
36.964 m², Large (>1 m²)

Expand to show TLE details & history

TLE from 11 hours ago
0 STARLINK-11334
1 61250U 24175H   25186.28403105 -.00000892  00000-0 -25077-5 0  9995
2 61250  53.1592 195.5419 0001323  72.0152 288.1010 15.69698647 44516
Epoch: 2025-07-05T06:49Z
TLE epoch observation values (Epoch: 2025-07-05T06:49:00.282Z)
Latitude
-0.00003°
Longitude
169.76641°
Altitude
360.397 km
Speed
7.694 km/s
True Right ascension
13h 02m 10s
True Declination
0° 00' 00"
Sunlit
Object was in daylight at epoch
Visualization orbit readout
Latitude
33.19505°
Longitude
-41.72201°
Altitude
361.605 km
Speed
7.697 km/s
Apparent Right ascension
20h 40m 50s
Apparent Declination
-2° 43' 01"
Sunlit
Object is in daylight
Visualization observer readout
Local Sidereal Time
06:01:07
Azimuth
305.373° NW
Elevation
-38.165°
Doppler factor
1
Orbital elements
Apogee altitude
360.912 km
Perigee altitude
359.129 km
Semi-major axis
6,738.157 km
Eccentricity
0.00013
Inclination
53.1592°
RAAN
195.5419°
Arg. of periapsis
72.0152°
True anomaly
Unknown
Mean anomaly
288.101°
Eccentric anomaly
Unknown
Mean motion
3.92402 °/min
Orbital period
91.74 mins
BSTAR
-0.0000025077
Loading maneuver chart data...
Loading SW <> Apogee altitude chart data...
Loading historical data...
Loading historical data...
Loading historical data...
Loading historical data...
Loading historical data...
Loading historical data...
Loading historical data...

STARLINK-11334 Visibility forecast

Observer location: undefined°, undefined°

Span
Click to sort rows by Start time (UTC) header in descending order
Start Az.
Max El. time (UTC)
Max El. Az.
Max El.
End time (UTC)
End Az.
5 mins2025-07-06 02:50:39.001Z204.07° SW2025-07-06 02:53:39.001Z118.072° SE30.598°2025-07-06 02:55:39.001Z68.409° E
|